Probability
0 0 0 1 2 3 3 3 3 2 1 0 0 0 0 0 0 0 0 0 0 0 0 0 0 0 0 0 0 0 0 0 0 0 0 0 0 0 0 0 0 0 0
0 0 0 0 1 3 3 3 2 1 0 0 0 0 0 0 0 0 0 0 0 0 0 0 0 0 0 0 0 0 0 0 0 0 0 0 0 0 0 0 0 0 0
0 0 0 0 1 2 2 1 1 0 0 0 0 0 0 0 0 0 0 0 0 0 0 0 0 0 0 0 0 0 0 0 0 0 0 0 0 0 0 0 0 0 0
0 0 0 0 0 1 1 0 0 0 0 0 0 0 0 0 0 0 0 0 0 0 0 0 0 0 0 0 0 0 0 0 0 0 0 0 0 0 0 0 0 0 0
0 0 0 0 0 0 0 0 0 0 0 0 0 0 0 0 0 0 0 0 0 0 0 0 0 0 0 0 0 0 0 0 0 0 0 0 0 0 0 0 0 0 0
0 0 0 0 0 0 0 0 0 0 0 0 0 0 0 0 0 0 0 0 0 0 0 0 0 0 0 0 0 0 0 0 0 0 0 0 0 0 0 0 0 0 0
0 0 0 0 0 0 0 0 0 0 0 0 0 0 0 0 0 0 0 0 0 0 0 0 0 0 0 0 0 0 0 0 0 0 0 0 0 0 0 0 0 0 0
0 0 0 0 0 0 0 0 0 0 0 0 0 0 0 0 0 0 0 0 0 0 0 0 0 0 0 0 0 0 0 0 0 0 0 0 0 0 0 0 0 0 0
0 0 0 0 0 0 0 0 0 0 0 0 0 0 0 0 0 0 0 0 0 0 0 0 0 0 0 0 0 0 0 0 0 0 0 0 0 0 0 0 0 0 0
0 0 0 0 0 0 0 0 0 0 0 0 0 0 0 0 0 0 0 0 0 0 0 0 0 0 0 0 0 0 0 0 0 0 0 0 0 0 0 0 0 0 0
0 0 0 0 0 0 0 0 0 0 0 0 0 0 0 0 0 0 0 0 0 0 0 0 0 0 0 0 0 0 0 0 0 0 0 0 0 0 0 0 0 0 0
0 0 0 0 0 0 0 0 0 0 0 0 0 0 0 0 0 0 0 0 0 0 0 0 0 0 0 0 0 0 0 0 0 0 0 0 0 0 0 0 0 0 0
0 0 0 0 0 0 0 0 0 0 0 0 0 0 0 0 0 0 0 0 0 0 0 0 0 0 0 0 0 0 0 0 0 0 0 0 0 0 0 0 0 0 0
0 0 0 0 0 0 0 0 0 0 0 0 0 0 0 0 0 0 0 0 0 0 0 0 0 0 0 0 0 0 0 0 0 0 0 0 0 0 0 0 0 0 0
0 0 0 0 0 0 0 0 0 0 0 0 0 0 0 0 0 0 0 0 0 0 0 0 0 0 0 0 0 0 0 0 0 0 0 0 0 0 0 0 0 0 0
0 0 0 0 0 0 0 0 0 0 0 0 0 0 0 0 0 0 0 0 0 0 0 0 0 0 0 0 0 0 0 0 0 0 0 0 0 0 0 0 0 0 0
0 0 0 0 0 0 0 0 0 0 0 0 0 0 0 0 0 0 0 0 0 0 0 0 0 0 0 0 0 0 0 0 0 0 0 0 0 0 0 0 0 0 0
0 0 0 0 0 0 0 0 0 0 0 0 0 0 0 0 0 0 0 0 0 0 0 0 0 0 0 0 0 0 0 0 0 0 0 0 0 0 0 0 0 0 0
0 0 0 0 0 0 0 0 0 0 0 0 0 0 0 0 0 0 0 0 0 0 0 0 0 0 0 0 0 0 0 0 0 0 0 0 0 0 0 0 0 0 0
0 0 0 0 0 0 0 0 0 0 0 0 0 0 0 0 0 0 0 0 0 0 0 0 0 0 0 0 0 0 0 0 0 0 0 0 0 0 0 0 0 0 0
0 0 0 0 0 0 0 0 0 0 0 0 0 0 0 0 0 0 0 0 0 0 0 0 0 0 0 0 0 0 0 0 0 0 0 0 0 0 0 0 0 0 0
0 0 0 0 0 0 0 0 0 0 0 0 0 0 0 0 0 0 0 0 0 0 0 0 0 0 0 0 0 0 0 0 0 0 0 0 0 0 0 0 0 0 0
0 0 0 0 0 0 0 0 0 0 0 0 0 0 0 0 0 0 0 0 0 0 0 0 0 0 0 0 0 0 0 0 0 0 0 0 0 0 0 0 0 0 0
0 0 0 0 0 0 0 0 0 0 0 0 0 0 0 0 0 0 0 0 0 0 0 0 0 0 0 0 0 0 0 0 0 0 0 0 0 0 0 0 0 0 0
0 0 0 0 0 0 0 0 0 0 0 0 0 0 0 0 0 0 0 0 0 0 0 0 0 0 0 0 0 0 0 0 0 0 0 0 0 0 0 0 0 0 0
0 0 0 0 0 0 0 0 0 0 0 0 0 0 0 0 0 0 0 0 0 0 0 0 0 0 0 0 0 0 0 0 0 0 0 0 0 0 0 0 0 0 0
Wind_Speed
3 3 3 2 3 3 2 2 2 2 3 3 3 3 4 4 4 4 3 3 3 2 2 2 2 1 1 1 1 1 2 2 3 1 1 1 1 2 2 2 2 2 3
3 3 2 2 2 2 2 2 3 3 3 3 4 4 4 5 4 4 3 3 3 3 3 3 2 2 2 1 1 1 2 2 3 3 1 1 1 1 1 1 1 1 1
3 3 2 2 1 1 2 2 3 3 3 4 4 4 4 4 4 4 4 3 3 3 3 3 2 2 2 2 2 2 2 2 3 4 2 1 1 1 1 2 2 1 1
3 3 2 1 1 1 2 2 3 3 3 3 3 3 3 4 4 4 4 3 3 3 3 3 2 2 2 2 2 2 2 3 3 4 3 1 1 1 1 1 1 1 1
3 3 2 1 1 2 2 3 3 3 3 3 3 3 3 3 3 4 3 3 3 3 3 3 3 3 3 2 2 2 3 3 3 3 2 1 1 1 1 1 1 1 1
3 2 2 1 1 2 2 2 3 3 3 3 3 2 3 3 5 5 3 2 2 2 2 2 3 4 4 4 4 3 4 4 4 3 2 3 2 2 1 1 1 1 1
3 2 2 2 1 1 2 2 2 2 2 2 2 2 2 3 6 6 5 2 2 2 2 2 2 3 4 3 3 4 2 2 4 4 4 4 3 3 3 1 2 2 2
3 2 2 2 2 2 2 1 1 1 1 1 1 1 2 3 5 6 5 3 3 2 2 1 2 2 3 2 2 3 2 1 1 2 3 3 3 3 4 3 3 1 2
3 3 3 3 3 2 1 1 0 0 1 1 1 1 1 3 4 4 4 3 3 3 3 2 2 2 3 4 3 3 3 2 2 1 2 2 3 4 4 2 1 1 1
3 3 2 3 3 2 2 1 1 0 1 1 1 1 0 2 3 3 2 2 2 2 2 3 3 2 3 4 2 2 1 1 1 2 2 2 1 2 4 4 4 3 2
3 2 2 2 3 2 1 1 1 0 1 2 2 2 2 2 2 2 2 2 1 1 1 2 2 3 3 3 2 1 1 1 0 0 1 1 2 1 2 3 4 4 4
3 3 2 2 2 1 1 1 0 0 1 1 2 3 3 2 2 2 1 1 1 1 1 1 2 4 4 3 1 1 1 1 1 1 1 1 1 2 3 3 4 4 5
3 2 2 1 0 1 1 1 1 0 0 1 1 1 3 2 3 3 3 2 1 0 2 3 4 6 5 3 3 4 2 0 0 0 1 3 3 3 2 2 2 2 3
3 2 1 1 1 1 0 1 1 1 1 1 2 2 2 2 2 2 2 2 2 2 2 4 6 5 4 3 4 3 1 2 2 2 3 3 2 2 2 2 2 1 2
3 2 1 1 2 1 1 2 2 3 4 4 3 3 2 3 4 4 2 1 1 1 2 2 3 3 3 3 3 3 2 1 2 2 2 3 3 2 3 2 2 1 1
2 2 2 2 1 1 1 2 4 4 5 6 6 5 4 6 6 4 4 4 3 2 1 2 3 3 3 3 4 4 3 3 3 3 3 3 3 3 4 3 2 2 3
3 3 2 2 2 2 2 2 3 4 4 5 6 7 7 6 7 6 5 4 4 2 1 3 4 4 4 4 4 4 4 4 3 3 4 4 4 4 4 4 3 3 4
3 4 3 3 3 3 3 3 3 3 4 4 5 8 9 8 8 7 5 2 3 2 3 4 5 5 5 5 5 4 4 4 3 3 4 4 4 4 4 4 4 4 4
4 3 3 3 3 3 3 3 4 4 4 4 4 5 8 8 8 8 5 3 4 5 4 5 6 6 5 5 5 5 5 5 5 4 4 5 4 4 4 5 5 6 5
3 6 5 3 3 3 3 3 4 4 4 4 5 5 3 2 3 4 4 5 5 6 6 6 6 6 6 6 5 5 5 5 5 5 5 5 5 4 5 6 5 5 5
3 4 6 4 3 4 4 4 4 4 5 5 6 7 7 5 6 7 6 6 7 7 7 7 6 6 6 5 5 6 6 5 5 5 5 5 5 5 5 5 6 6 5
4 3 3 4 4 4 4 4 4 5 6 7 6 6 9 6 6 6 6 7 7 7 7 6 6 6 6 6 6 6 6 6 6 6 6 6 5 6 5 5 6 6 6
4 4 4 4 4 6 6 5 5 5 6 6 6 6 5 6 6 7 7 7 7 7 6 6 7 7 7 6 6 6 6 7 7 7 6 6 6 6 5 6 7 7 6
4 5 5 5 5 5 5 6 6 6 6 6 6 6 6 6 6 7 7 7 6 6 6 6 7 9 11 8 6 6 7 7 7 6 8 7 7 6 6 6 7 7 7
4 5 5 5 5 6 6 6 6 6 6 6 6 6 5 5 6 6 7 6 7 7 8 7 6 7 10 10 9 8 8 10 8 6 6 5 7 7 7 7 7 7 7
6 6 6 5 6 6 6 6 6 6 6 6 6 6 6 5 6 6 6 6 6 6 6 6 7 8 9 8 9 9 9 9 9 9 6 5 6 7 7 7 9 8 9
Wind_Direction
84 78 75 63 60 63 57 39 33 27 27 31 31 31 30 23 18 22 14 23 27 18 21 30 13 22 47 38 63 103 119 125 131 123 70 61 50 59 45 37 40 44 49
107 95 85 70 56 48 33 23 30 31 31 39 44 41 38 30 22 23 18 23 26 24 20 33 16 47 55 49 77 102 115 120 132 137 115 68 62 75 58 47 42 55 55
122 110 92 81 68 37 22 27 35 46 43 39 53 53 39 30 24 19 24 29 30 27 25 35 27 57 61 57 77 93 101 105 107 126 122 87 66 70 66 37 36 27 24
130 123 108 100 87 52 35 36 45 55 55 51 59 57 41 30 21 16 28 35 29 24 22 30 35 56 73 79 81 91 105 105 107 119 120 108 89 56 86 71 23 0 347
130 127 130 123 87 71 54 40 41 51 62 62 64 48 32 29 15 15 23 38 34 26 17 18 37 60 74 86 109 122 124 121 124 128 131 120 127 128 165 194 150 335 326
135 149 150 126 99 75 59 52 54 52 49 55 54 45 32 17 14 25 32 33 30 38 21 10 25 39 48 60 79 107 137 145 148 148 157 167 192 190 180 172 147 94 303
148 153 147 133 119 99 97 77 66 51 47 42 38 40 23 359 17 22 29 55 50 41 39 31 33 33 34 45 52 56 71 118 159 162 167 186 188 195 176 180 190 191 226
157 157 153 140 136 123 98 87 56 46 41 14 2 17 18 358 11 20 35 55 52 39 41 57 60 31 31 50 58 52 44 39 133 155 174 194 197 196 185 189 196 206 282
168 169 166 155 149 142 138 170 243 27 353 314 310 12 16 345 2 24 48 50 49 29 19 32 53 48 36 66 76 62 39 12 27 111 178 206 216 213 185 147 137 109 322
177 173 165 155 152 160 184 212 236 225 276 307 335 329 321 328 348 26 56 76 58 19 3 6 22 39 38 57 80 86 54 328 356 15 7 337 270 236 204 183 173 163 186
166 144 135 144 158 171 186 220 224 297 348 347 338 322 314 299 326 12 63 102 118 50 4 342 339 8 24 38 60 121 228 265 298 5 325 317 315 291 245 210 191 178 182
139 128 131 154 180 162 168 263 291 355 353 334 337 330 323 318 324 339 19 74 137 126 288 297 309 335 343 341 343 300 303 1 70 40 7 304 278 269 262 247 221 213 213
130 143 162 162 205 183 191 245 295 336 309 286 292 297 303 315 327 338 355 11 40 111 276 287 308 322 329 328 312 308 317 90 135 205 258 260 248 246 258 281 283 258 258
143 163 172 162 258 282 269 214 206 235 242 249 252 254 271 299 306 319 331 346 2 359 331 324 330 329 328 313 312 315 289 212 198 224 247 259 268 274 261 243 255 277 302
155 177 205 223 223 249 269 250 226 231 216 208 220 215 208 246 251 230 216 250 266 303 336 351 350 344 338 326 317 305 290 249 226 233 241 261 271 273 271 255 230 225 231
168 200 217 226 230 229 248 295 286 256 257 234 222 213 226 233 237 237 239 251 266 287 26 320 304 299 294 290 292 294 284 258 240 231 236 241 249 254 261 262 236 224 241
186 206 223 229 226 231 230 235 279 299 283 266 248 235 231 231 231 238 246 257 268 252 244 263 268 271 271 272 265 258 262 259 241 228 234 239 242 246 247 252 250 246 252
202 216 221 231 232 236 237 236 236 248 274 281 264 245 241 237 238 245 251 265 280 245 234 252 261 262 258 259 260 258 259 264 255 242 237 239 237 236 241 246 246 242 249
207 223 232 237 236 237 240 240 244 246 251 261 271 266 248 246 252 253 229 212 244 258 252 251 253 254 255 253 253 251 248 250 250 242 240 240 238 231 240 245 248 252 248
221 234 238 243 252 255 254 250 252 253 256 258 255 253 238 211 244 251 224 224 237 250 255 254 254 251 251 251 250 248 248 248 248 245 244 246 244 234 239 246 247 249 248
220 240 250 257 255 255 256 253 249 248 251 255 256 249 219 215 235 244 242 236 237 244 249 250 251 253 251 249 247 244 241 245 243 241 244 247 245 243 244 244 248 250 253
214 228 237 246 252 256 256 253 253 253 254 256 264 269 240 229 240 245 247 249 245 242 242 241 246 246 240 239 239 237 239 243 245 244 244 246 244 244 244 246 249 252 252
218 231 246 254 255 261 264 260 257 256 258 257 258 261 250 236 241 245 250 252 251 248 243 236 239 249 249 243 236 229 233 238 239 234 234 239 241 242 241 243 248 251 253
219 230 243 255 259 260 260 263 263 261 260 260 259 255 250 245 244 246 249 253 253 253 250 242 240 245 250 250 244 239 238 241 240 237 230 233 239 243 241 243 246 249 253
226 235 244 252 258 259 262 264 264 263 262 261 259 257 254 248 246 250 252 253 256 257 258 250 244 246 251 252 252 251 249 246 243 239 233 230 239 242 243 246 248 251 254
232 240 245 250 255 257 258 262 264 262 260 260 258 253 251 249 248 250 253 255 256 258 261 258 253 250 250 252 256 257 256 255 253 247 239 235 239 246 247 251 253 254 258